Location: Newark
(25.0000°N, 73.5000°E)
Time: 05:17:14
(UTC+00:00)

Altair - Pass Details

Date: 04 March 2021
Orbit: 1501 x 1683 km, 47.2° (Epoch: 12 April)

Event Time Altitude Azimuth Distance (km) Brightness Sun altitude
Rises 10:20:41 0° 191° (S) 4,645 10.5 35.6°
Reaches altitude 10° 10:24:22 10° 179° (S) 3,651 9.9 34.9°
Maximum altitude 10:31:35 27° 126° (SE) 2,580 8.7 33.4°
Drops below altitude 10° 10:38:48 10° 74° (ENE) 3,658 9.1 32.0°
Sets 10:42:26 0° 62° (ENE) 4,655 9.5 31.2°
